Time,TemperatureF,DewpointF,PressureIn,WindDirection,WindDirectionDegrees,WindSpeedMPH,WindSpeedGustMPH,Humidity,HourlyPrecipIn,Conditions,Clouds,dailyrainin,SolarRadiationWatts/m^2,SoftwareType,DateUTC
2013-03-06 00:00:00,33.1,30.4,30.09,North,7,0.0,0.0,90,0.00,,,0.00,0.0,WUHU216DAVISWMX,2013-03-06 05:00:00,
2013-03-06 00:05:00,33.0,30.6,30.09,North,7,0.0,0.0,91,0.00,,,0.00,0.0,WUHU216DAVISWMX,2013-03-06 05:05:00,
2013-03-06 00:10:00,33.0,30.6,30.08,North,7,0.0,0.0,91,0.00,,,0.00,0.0,WUHU216DAVISWMX,2013-03-06 05:10:00,
2013-03-06 00:15:00,33.0,30.6,30.09,North,7,0.0,0.0,91,0.00,,,0.00,0.0,WUHU216DAVISWMX,2013-03-06 05:15:00,
2013-03-06 00:20:00,33.2,30.8,30.08,North,7,0.0,0.0,91,0.01,,,0.01,0.0,WUHU216DAVISWMX,2013-03-06 05:20:00,
2013-03-06 00:25:00,33.2,31.1,30.08,North,7,0.0,1.0,92,0.01,,,0.01,0.0,WUHU216DAVISWMX,2013-03-06 05:25:00,
2013-03-06 00:30:00,33.2,30.8,30.08,North,7,0.0,1.0,91,0.01,,,0.01,0.0,WUHU216DAVISWMX,2013-03-06 05:30:00,
2013-03-06 00:35:00,33.2,31.1,30.08,North,7,0.0,0.0,92,0.01,,,0.01,0.0,WUHU216DAVISWMX,2013-03-06 05:35:00,
2013-03-06 00:40:00,33.3,31.2,30.08,North,0,2.0,3.0,92,0.01,,,0.01,0.0,WUHU216DAVISWMX,2013-03-06 05:40:00,
2013-03-06 00:45:00,33.6,31.5,30.08,North,0,0.0,3.0,92,0.01,,,0.01,0.0,WUHU216DAVISWMX,2013-03-06 05:45:00,
2013-03-06 00:50:00,34.0,32.1,30.08,NNW,347,4.0,9.0,93,0.01,,,0.01,0.0,WUHU216DAVISWMX,2013-03-06 05:50:00,
2013-03-06 00:55:00,34.2,32.3,30.08,North,0,1.0,9.0,93,0.01,,,0.01,0.0,WUHU216DAVISWMX,2013-03-06 05:55:00,
2013-03-06 01:00:00,34.3,32.2,30.07,NE,43,1.0,6.0,92,0.01,,,0.01,0.0,WUHU216DAVISWMX,2013-03-06 06:00:00,
2013-03-06 01:05:00,34.2,32.1,30.08,NE,36,0.0,6.0,92,0.01,,,0.01,0.0,WUHU216DAVISWMX,2013-03-06 06:05:00,
2013-03-06 01:10:00,34.1,32.0,30.07,NE,36,0.0,4.0,92,0.01,,,0.01,0.0,WUHU216DAVISWMX,2013-03-06 06:10:00,
2013-03-06 01:15:00,34.1,32.0,30.08,North,352,3.0,6.0,92,0.01,,,0.01,0.0,WUHU216DAVISWMX,2013-03-06 06:15:00,
2013-03-06 01:20:00,34.1,32.0,30.08,North,352,1.0,6.0,92,0.00,,,0.01,0.0,WUHU216DAVISWMX,2013-03-06 06:20:00,
2013-03-06 01:25:00,34.2,32.1,30.08,North,352,2.0,3.0,92,0.00,,,0.01,0.0,WUHU216DAVISWMX,2013-03-06 06:25:00,
2013-03-06 01:30:00,34.1,32.0,30.08,North,352,3.0,3.0,92,0.00,,,0.01,0.0,WUHU216DAVISWMX,2013-03-06 06:30:00,
2013-03-06 01:35:00,34.2,32.1,30.08,North,358,2.0,6.0,92,0.00,,,0.01,0.0,WUHU216DAVISWMX,2013-03-06 06:35:00,
2013-03-06 01:40:00,34.3,31.9,30.08,NNE,23,6.0,6.0,91,0.00,,,0.01,0.0,WUHU216DAVISWMX,2013-03-06 06:40:00,
2013-03-06 01:45:00,34.5,32.1,30.07,NNE,33,4.0,9.0,91,0.00,,,0.01,0.0,WUHU216DAVISWMX,2013-03-06 06:45:00,
2013-03-06 01:50:00,34.7,32.6,30.08,North,352,0.0,9.0,92,0.00,,,0.01,0.0,WUHU216DAVISWMX,2013-03-06 06:50:00,
2013-03-06 01:55:00,34.8,32.4,30.08,North,6,3.0,9.0,91,0.00,,,0.01,0.0,WUHU216DAVISWMX,2013-03-06 06:55:00,
2013-03-06 02:00:00,34.8,32.4,30.08,North,10,0.0,6.0,91,0.00,,,0.01,0.0,WUHU216DAVISWMX,2013-03-06 07:00:00,
2013-03-06 02:05:00,34.8,32.4,30.08,SE,135,4.0,6.0,91,0.00,,,0.01,0.0,WUHU216DAVISWMX,2013-03-06 07:05:00,
2013-03-06 02:10:00,34.9,32.5,30.08,NNE,13,2.0,8.0,91,0.00,,,0.01,0.0,WUHU216DAVISWMX,2013-03-06 07:10:00,
2013-03-06 02:15:00,35.0,32.6,30.08,North,1,0.0,14.0,91,0.00,,,0.01,0.0,WUHU216DAVISWMX,2013-03-06 07:15:00,
2013-03-06 02:20:00,35.0,32.3,30.08,North,0,3.0,14.0,90,0.00,,,0.01,0.0,WUHU216DAVISWMX,2013-03-06 07:20:00,
2013-03-06 02:25:00,35.0,32.3,30.08,NNE,12,0.0,6.0,90,0.00,,,0.01,0.0,WUHU216DAVISWMX,2013-03-06 07:25:00,
2013-03-06 02:30:00,35.0,32.3,30.07,NNE,28,2.0,6.0,90,0.00,,,0.01,0.0,WUHU216DAVISWMX,2013-03-06 07:30:00,
2013-03-06 02:35:00,35.0,32.3,30.07,North,0,0.0,7.0,90,0.00,,,0.01,0.0,WUHU216DAVISWMX,2013-03-06 07:35:00,
2013-03-06 02:40:00,35.0,32.3,30.07,NE,35,2.0,9.0,90,0.00,,,0.01,0.0,WUHU216DAVISWMX,2013-03-06 07:40:00,
2013-03-06 02:45:00,35.1,32.4,30.07,NNE,15,2.0,9.0,90,0.00,,,0.01,0.0,WUHU216DAVISWMX,2013-03-06 07:45:00,
2013-03-06 02:50:00,35.1,32.4,30.07,East,92,1.0,7.0,90,0.00,,,0.01,0.0,WUHU216DAVISWMX,2013-03-06 07:50:00,
2013-03-06 02:55:00,35.0,32.3,30.07,NE,39,8.0,8.0,90,0.00,,,0.01,0.0,WUHU216DAVISWMX,2013-03-06 07:55:00,
2013-03-06 03:00:00,35.1,32.4,30.07,NE,47,0.0,8.0,90,0.00,,,0.01,0.0,WUHU216DAVISWMX,2013-03-06 08:00:00,
2013-03-06 03:05:00,35.1,32.4,30.08,East,80,1.0,8.0,90,0.00,,,0.01,0.0,WUHU216DAVISWMX,2013-03-06 08:05:00,
2013-03-06 03:10:00,35.1,32.4,30.07,North,0,2.0,9.0,90,0.00,,,0.01,0.0,WUHU216DAVISWMX,2013-03-06 08:10:00,
2013-03-06 03:15:00,35.1,32.4,30.07,North,1,3.0,9.0,90,0.00,,,0.01,0.0,WUHU216DAVISWMX,2013-03-06 08:15:00,
2013-03-06 03:20:00,35.1,32.4,30.08,North,0,0.0,7.0,90,0.00,,,0.01,0.0,WUHU216DAVISWMX,2013-03-06 08:20:00,
2013-03-06 03:25:00,35.1,32.4,30.07,NNE,20,1.0,7.0,90,0.00,,,0.01,0.0,WUHU216DAVISWMX,2013-03-06 08:25:00,
2013-03-06 03:30:00,35.1,32.4,30.08,North,3,7.0,7.0,90,0.00,,,0.01,0.0,WUHU216DAVISWMX,2013-03-06 08:30:00,
2013-03-06 03:35:00,35.1,32.1,30.08,NNW,335,2.0,7.0,89,0.00,,,0.01,0.0,WUHU216DAVISWMX,2013-03-06 08:35:00,
2013-03-06 03:40:00,35.1,32.1,30.08,NNE,23,4.0,11.0,89,0.00,,,0.01,0.0,WUHU216DAVISWMX,2013-03-06 08:40:00,
2013-03-06 03:45:00,35.1,32.4,30.09,North,350,3.0,11.0,90,0.00,,,0.01,0.0,WUHU216DAVISWMX,2013-03-06 08:45:00,
2013-03-06 03:50:00,35.0,32.3,30.08,NE,35,0.0,6.0,90,0.00,,,0.01,0.0,WUHU216DAVISWMX,2013-03-06 08:50:00,
2013-03-06 03:55:00,35.0,32.3,30.09,North,8,4.0,6.0,90,0.00,,,0.01,0.0,WUHU216DAVISWMX,2013-03-06 08:55:00,
2013-03-06 04:00:00,35.0,32.3,30.09,North,6,0.0,7.0,90,0.00,,,0.01,0.0,WUHU216DAVISWMX,2013-03-06 09:00:00,
2013-03-06 04:05:00,34.9,32.2,30.09,NNW,348,0.0,7.0,90,0.00,,,0.01,0.0,WUHU216DAVISWMX,2013-03-06 09:05:00,
2013-03-06 04:10:00,34.8,32.4,30.09,NNE,27,1.0,7.0,91,0.00,,,0.01,0.0,WUHU216DAVISWMX,2013-03-06 09:10:00,
2013-03-06 04:15:00,34.8,32.4,30.09,North,358,5.0,7.0,91,0.00,,,0.01,0.0,WUHU216DAVISWMX,2013-03-06 09:15:00,
2013-03-06 04:20:00,34.7,32.3,30.09,North,5,1.0,12.0,91,0.00,,,0.01,0.0,WUHU216DAVISWMX,2013-03-06 09:20:00,
2013-03-06 04:25:00,34.7,32.3,30.09,North,11,1.0,12.0,91,0.00,,,0.01,0.0,WUHU216DAVISWMX,2013-03-06 09:25:00,
2013-03-06 04:30:00,34.6,32.2,30.09,North,349,4.0,7.0,91,0.00,,,0.01,0.0,WUHU216DAVISWMX,2013-03-06 09:30:00,
2013-03-06 04:35:00,34.6,32.2,30.09,North,357,3.0,7.0,91,0.00,,,0.01,0.0,WUHU216DAVISWMX,2013-03-06 09:35:00,
2013-03-06 04:40:00,34.5,32.1,30.09,NNE,25,2.0,5.0,91,0.00,,,0.01,0.0,WUHU216DAVISWMX,2013-03-06 09:40:00,
2013-03-06 04:45:00,34.4,32.3,30.10,North,7,3.0,6.0,92,0.00,,,0.01,0.0,WUHU216DAVISWMX,2013-03-06 09:45:00,
2013-03-06 04:50:00,34.4,32.3,30.09,North,7,1.0,6.0,92,0.00,,,0.01,0.0,WUHU216DAVISWMX,2013-03-06 09:50:00,
2013-03-06 04:55:00,34.3,32.2,30.10,NNE,15,1.0,5.0,92,0.00,,,0.01,0.0,WUHU216DAVISWMX,2013-03-06 09:55:00,
2013-03-06 05:00:00,34.3,32.2,30.09,NNE,24,0.0,5.0,92,0.00,,,0.01,0.0,WUHU216DAVISWMX,2013-03-06 10:00:00,
2013-03-06 05:05:00,34.2,32.1,30.09,NNE,22,5.0,6.0,92,0.01,,,0.02,0.0,WUHU216DAVISWMX,2013-03-06 10:05:00,
2013-03-06 05:10:00,34.2,32.3,30.09,NE,47,3.0,9.0,93,0.01,,,0.02,0.0,WUHU216DAVISWMX,2013-03-06 10:10:00,
2013-03-06 05:15:00,34.2,32.3,30.09,North,7,5.0,9.0,93,0.01,,,0.02,0.0,WUHU216DAVISWMX,2013-03-06 10:15:00,
2013-03-06 05:20:00,34.1,32.2,30.09,North,6,2.0,7.0,93,0.01,,,0.02,0.0,WUHU216DAVISWMX,2013-03-06 10:20:00,
2013-03-06 05:25:00,34.0,32.1,30.09,NNE,32,6.0,7.0,93,0.01,,,0.02,0.0,WUHU216DAVISWMX,2013-03-06 10:25:00,
2013-03-06 05:30:00,34.0,32.1,30.09,NNW,334,4.0,7.0,93,0.01,,,0.02,0.0,WUHU216DAVISWMX,2013-03-06 10:30:00,
2013-03-06 05:35:00,33.9,32.0,30.09,NNW,343,4.0,7.0,93,0.02,,,0.03,0.0,WUHU216DAVISWMX,2013-03-06 10:35:00,
2013-03-06 05:40:00,33.9,32.0,30.08,NNE,15,0.0,6.0,93,0.02,,,0.03,0.0,WUHU216DAVISWMX,2013-03-06 10:40:00,
2013-03-06 05:45:00,33.9,32.0,30.08,North,354,3.0,7.0,93,0.02,,,0.03,0.0,WUHU216DAVISWMX,2013-03-06 10:45:00,
2013-03-06 05:50:00,33.9,32.0,30.08,NE,34,3.0,7.0,93,0.02,,,0.03,0.0,WUHU216DAVISWMX,2013-03-06 10:50:00,
2013-03-06 05:55:00,33.9,32.0,30.09,NNE,29,1.0,7.0,93,0.02,,,0.03,0.0,WUHU216DAVISWMX,2013-03-06 10:55:00,
2013-03-06 06:00:00,33.9,32.0,30.09,North,5,5.0,7.0,93,0.03,,,0.04,0.0,WUHU216DAVISWMX,2013-03-06 11:00:00,
2013-03-06 06:05:00,33.7,31.8,30.09,North,9,6.0,11.0,93,0.02,,,0.04,0.0,WUHU216DAVISWMX,2013-03-06 11:05:00,
2013-03-06 06:10:00,33.5,31.6,30.09,NE,36,7.0,11.0,93,0.03,,,0.05,0.0,WUHU216DAVISWMX,2013-03-06 11:10:00,
2013-03-06 06:15:00,33.4,31.5,30.10,North,352,0.0,7.0,93,0.03,,,0.05,0.0,WUHU216DAVISWMX,2013-03-06 11:15:00,
2013-03-06 06:20:00,33.3,31.4,30.09,North,4,4.0,7.0,93,0.03,,,0.05,0.0,WUHU216DAVISWMX,2013-03-06 11:20:00,
2013-03-06 06:25:00,33.2,31.3,30.09,North,358,5.0,5.0,93,0.04,,,0.06,0.0,WUHU216DAVISWMX,2013-03-06 11:25:00,
2013-03-06 06:30:00,33.2,31.6,30.09,North,0,0.0,8.0,94,0.04,,,0.06,0.0,WUHU216DAVISWMX,2013-03-06 11:30:00,
2013-03-06 06:35:00,33.1,31.2,30.09,North,6,0.0,8.0,93,0.03,,,0.06,0.0,WUHU216DAVISWMX,2013-03-06 11:35:00,
2013-03-06 06:40:00,33.2,31.6,30.10,North,352,6.0,7.0,94,0.03,,,0.06,0.0,WUHU216DAVISWMX,2013-03-06 11:40:00,
2013-03-06 06:45:00,33.3,31.7,30.10,North,357,2.0,6.0,94,0.04,,,0.07,0.0,WUHU216DAVISWMX,2013-03-06 11:45:00,
2013-03-06 06:50:00,33.6,32.0,30.10,North,0,4.0,5.0,94,0.04,,,0.07,0.0,WUHU216DAVISWMX,2013-03-06 11:50:00,
2013-03-06 06:55:00,33.8,32.5,30.10,NE,42,8.0,12.0,95,0.04,,,0.07,0.0,WUHU216DAVISWMX,2013-03-06 11:55:00,
2013-03-06 07:00:00,34.2,32.9,30.11,NE,48,2.0,12.0,95,0.03,,,0.07,0.0,WUHU216DAVISWMX,2013-03-06 12:00:00,
2013-03-06 07:05:00,34.5,33.2,30.11,NE,35,7.0,7.0,95,0.04,,,0.08,0.0,WUHU216DAVISWMX,2013-03-06 12:05:00,
2013-03-06 07:10:00,34.8,33.5,30.11,NNW,339,10.0,11.0,95,0.03,,,0.08,0.0,WUHU216DAVISWMX,2013-03-06 12:10:00,
2013-03-06 07:15:00,34.9,33.6,30.11,North,0,1.0,11.0,95,0.03,,,0.08,0.0,WUHU216DAVISWMX,2013-03-06 12:15:00,
2013-03-06 07:20:00,35.0,33.7,30.11,ENE,71,4.0,11.0,95,0.03,,,0.08,0.0,WUHU216DAVISWMX,2013-03-06 12:20:00,
2013-03-06 07:25:00,35.1,33.5,30.12,South,178,3.0,11.0,94,0.02,,,0.08,0.0,WUHU216DAVISWMX,2013-03-06 12:25:00,
2013-03-06 07:30:00,35.1,33.5,30.12,ESE,113,2.0,8.0,94,0.02,,,0.08,0.0,WUHU216DAVISWMX,2013-03-06 12:30:00,
2013-03-06 07:35:00,35.2,33.6,30.12,SE,137,2.0,7.0,94,0.02,,,0.08,0.0,WUHU216DAVISWMX,2013-03-06 12:35:00,
2013-03-06 07:40:00,35.2,33.6,30.13,NNW,347,4.0,9.0,94,0.02,,,0.08,0.0,WUHU216DAVISWMX,2013-03-06 12:40:00,
2013-03-06 07:45:00,35.2,33.6,30.13,SSE,165,4.0,9.0,94,0.02,,,0.09,0.0,WUHU216DAVISWMX,2013-03-06 12:45:00,
2013-03-06 07:50:00,35.3,33.7,30.13,East,91,0.0,8.0,94,0.02,,,0.09,0.0,WUHU216DAVISWMX,2013-03-06 12:50:00,
2013-03-06 07:55:00,35.3,33.7,30.13,NW,326,1.0,8.0,94,0.02,,,0.09,0.0,WUHU216DAVISWMX,2013-03-06 12:55:00,
2013-03-06 08:00:00,35.4,33.5,30.13,North,6,4.0,7.0,93,0.02,,,0.09,0.0,WUHU216DAVISWMX,2013-03-06 13:00:00,
2013-03-06 08:05:00,35.5,33.6,30.13,NNE,13,3.0,8.0,93,0.01,,,0.09,0.0,WUHU216DAVISWMX,2013-03-06 13:05:00,
2013-03-06 08:10:00,35.6,33.7,30.13,NNE,21,3.0,12.0,93,0.01,,,0.09,0.0,WUHU216DAVISWMX,2013-03-06 13:10:00,
2013-03-06 08:15:00,35.7,33.8,30.13,NE,44,2.0,12.0,93,0.01,,,0.09,0.0,WUHU216DAVISWMX,2013-03-06 13:15:00,
2013-03-06 08:20:00,35.9,34.0,30.13,ESE,114,6.0,14.0,93,0.01,,,0.09,0.0,WUHU216DAVISWMX,2013-03-06 13:20:00,
2013-03-06 08:25:00,36.0,34.1,30.13,ENE,75,0.0,14.0,93,0.01,,,0.09,0.0,WUHU216DAVISWMX,2013-03-06 13:25:00,
2013-03-06 08:30:00,35.9,33.8,30.13,NE,35,2.0,10.0,92,0.01,,,0.09,0.0,WUHU216DAVISWMX,2013-03-06 13:30:00,
2013-03-06 08:35:00,35.8,33.7,30.13,NNE,19,3.0,10.0,92,0.01,,,0.09,0.0,WUHU216DAVISWMX,2013-03-06 13:35:00,
2013-03-06 08:40:00,35.8,33.4,30.12,NE,49,7.0,8.0,91,0.01,,,0.09,0.0,WUHU216DAVISWMX,2013-03-06 13:40:00,
2013-03-06 08:45:00,35.8,33.4,30.12,North,0,4.0,7.0,91,0.00,,,0.09,0.0,WUHU216DAVISWMX,2013-03-06 13:45:00,
2013-03-06 08:50:00,35.8,33.4,30.12,NNE,16,1.0,10.0,91,0.00,,,0.09,0.0,WUHU216DAVISWMX,2013-03-06 13:50:00,
2013-03-06 08:55:00,35.9,33.2,30.12,NNE,26,2.0,11.0,90,0.00,,,0.09,0.0,WUHU216DAVISWMX,2013-03-06 13:55:00,
2013-03-06 09:00:00,36.1,32.9,30.12,NE,37,4.0,15.0,88,0.00,,,0.09,0.0,WUHU216DAVISWMX,2013-03-06 14:00:00,
2013-03-06 09:05:00,36.4,32.6,30.13,SSW,201,2.0,15.0,86,0.00,,,0.09,0.0,WUHU216DAVISWMX,2013-03-06 14:05:00,
2013-03-06 09:10:00,36.5,32.1,30.13,NE,35,6.0,15.0,84,0.00,,,0.09,0.0,WUHU216DAVISWMX,2013-03-06 14:10:00,
2013-03-06 09:15:00,36.3,31.9,30.13,NE,36,4.0,15.0,84,0.00,,,0.09,0.0,WUHU216DAVISWMX,2013-03-06 14:15:00,
2013-03-06 09:20:00,36.5,32.1,30.13,WNW,290,2.0,14.0,84,0.00,,,0.09,0.0,WUHU216DAVISWMX,2013-03-06 14:20:00,
2013-03-06 09:25:00,36.5,32.1,30.13,North,0,4.0,11.0,84,0.00,,,0.09,0.0,WUHU216DAVISWMX,2013-03-06 14:25:00,
2013-03-06 09:30:00,36.6,32.2,30.12,NNE,12,2.0,8.0,84,0.00,,,0.09,0.0,WUHU216DAVISWMX,2013-03-06 14:30:00,
2013-03-06 09:35:00,36.7,32.3,30.14,East,86,5.0,14.0,84,0.00,,,0.09,0.0,WUHU216DAVISWMX,2013-03-06 14:35:00,
2013-03-06 09:40:00,36.9,32.2,30.13,North,350,3.0,14.0,83,0.00,,,0.09,0.0,WUHU216DAVISWMX,2013-03-06 14:40:00,
2013-03-06 09:45:00,36.9,32.2,30.13,NNE,20,6.0,9.0,83,0.00,,,0.09,0.0,WUHU216DAVISWMX,2013-03-06 14:45:00,
2013-03-06 09:50:00,37.1,31.8,30.13,North,3,4.0,10.0,81,0.00,,,0.09,0.0,WUHU216DAVISWMX,2013-03-06 14:50:00,
2013-03-06 09:55:00,37.2,31.6,30.13,SSW,202,2.0,10.0,80,0.00,,,0.09,0.0,WUHU216DAVISWMX,2013-03-06 14:55:00,
2013-03-06 10:00:00,37.4,31.5,30.13,NNE,23,0.0,11.0,79,0.00,,,0.09,0.0,WUHU216DAVISWMX,2013-03-06 15:00:00,
2013-03-06 10:05:00,37.5,31.3,30.14,NNE,30,5.0,11.0,78,0.00,,,0.09,0.0,WUHU216DAVISWMX,2013-03-06 15:05:00,
2013-03-06 10:10:00,37.6,31.1,30.14,North,2,6.0,9.0,77,0.00,,,0.09,0.0,WUHU216DAVISWMX,2013-03-06 15:10:00,
2013-03-06 10:15:00,37.7,31.2,30.14,NE,38,2.0,8.0,77,0.00,,,0.09,0.0,WUHU216DAVISWMX,2013-03-06 15:15:00,
2013-03-06 10:20:00,37.6,31.4,30.13,NNE,21,9.0,10.0,78,0.00,,,0.09,0.0,WUHU216DAVISWMX,2013-03-06 15:20:00,
2013-03-06 10:25:00,37.3,31.4,30.13,North,0,4.0,10.0,79,0.00,,,0.09,0.0,WUHU216DAVISWMX,2013-03-06 15:25:00,
2013-03-06 10:30:00,36.9,31.6,30.13,North,11,1.0,9.0,81,0.00,,,0.09,0.0,WUHU216DAVISWMX,2013-03-06 15:30:00,
2013-03-06 10:35:00,36.3,31.6,30.14,ENE,63,3.0,10.0,83,0.01,,,0.10,0.0,WUHU216DAVISWMX,2013-03-06 15:35:00,
2013-03-06 10:40:00,35.5,31.4,30.13,NE,35,2.0,10.0,85,0.02,,,0.11,0.0,WUHU216DAVISWMX,2013-03-06 15:40:00,
2013-03-06 10:45:00,35.1,31.6,30.14,NNE,20,2.0,8.0,87,0.02,,,0.11,0.0,WUHU216DAVISWMX,2013-03-06 15:45:00,
2013-03-06 10:50:00,35.1,31.9,30.13,NNE,13,1.0,8.0,88,0.02,,,0.11,0.0,WUHU216DAVISWMX,2013-03-06 15:50:00,
2013-03-06 10:55:00,35.2,32.5,30.13,North,1,6.0,13.0,90,0.03,,,0.12,0.0,WUHU216DAVISWMX,2013-03-06 15:55:00,
2013-03-06 11:00:00,35.2,32.5,30.13,NE,39,1.0,13.0,90,0.03,,,0.12,0.0,WUHU216DAVISWMX,2013-03-06 16:00:00,
2013-03-06 11:05:00,35.2,32.5,30.13,NNE,23,1.0,12.0,90,0.03,,,0.12,0.0,WUHU216DAVISWMX,2013-03-06 16:05:00,
2013-03-06 11:10:00,35.4,32.7,30.13,NE,47,10.0,12.0,90,0.03,,,0.12,0.0,WUHU216DAVISWMX,2013-03-06 16:10:00,
2013-03-06 11:15:00,35.4,32.7,30.13,North,6,6.0,14.0,90,0.03,,,0.12,0.0,WUHU216DAVISWMX,2013-03-06 16:15:00,
2013-03-06 11:20:00,35.1,32.4,30.12,NNW,347,10.0,14.0,90,0.03,,,0.12,0.0,WUHU216DAVISWMX,2013-03-06 16:20:00,
2013-03-06 11:25:00,34.9,32.2,30.13,NNE,32,3.0,12.0,90,0.03,,,0.12,0.0,WUHU216DAVISWMX,2013-03-06 16:25:00,
2013-03-06 11:30:00,35.0,32.3,30.13,ENE,71,2.0,11.0,90,0.03,,,0.12,0.0,WUHU216DAVISWMX,2013-03-06 16:30:00,
2013-03-06 11:35:00,34.9,32.5,30.13,East,84,4.0,13.0,91,0.02,,,0.12,0.0,WUHU216DAVISWMX,2013-03-06 16:35:00,
2013-03-06 11:40:00,34.9,32.5,30.13,North,354,4.0,13.0,91,0.01,,,0.12,0.0,WUHU216DAVISWMX,2013-03-06 16:40:00,
2013-03-06 11:45:00,34.9,32.8,30.13,NNE,29,3.0,11.0,92,0.01,,,0.12,0.0,WUHU216DAVISWMX,2013-03-06 16:45:00,
2013-03-06 11:50:00,34.9,32.8,30.13,North,0,2.0,11.0,92,0.01,,,0.12,0.0,WUHU216DAVISWMX,2013-03-06 16:50:00,
2013-03-06 11:55:00,34.8,32.7,30.12,NNE,13,15.0,15.0,92,0.00,,,0.12,0.0,WUHU216DAVISWMX,2013-03-06 16:55:00,
2013-03-06 12:00:00,34.8,32.4,30.12,North,0,1.0,15.0,91,0.00,,,0.12,0.0,WUHU216DAVISWMX,2013-03-06 17:00:00,
2013-03-06 12:05:00,35.0,32.6,30.12,North,0,5.0,11.0,91,0.00,,,0.12,0.0,WUHU216DAVISWMX,2013-03-06 17:05:00,
2013-03-06 12:10:00,35.2,33.1,30.12,East,79,5.0,11.0,92,0.00,,,0.12,0.0,WUHU216DAVISWMX,2013-03-06 17:10:00,
2013-03-06 12:15:00,35.1,32.7,30.12,North,0,3.0,13.0,91,0.00,,,0.12,0.0,WUHU216DAVISWMX,2013-03-06 17:15:00,
2013-03-06 12:20:00,34.8,32.4,30.12,NNE,14,3.0,13.0,91,0.01,,,0.13,0.0,WUHU216DAVISWMX,2013-03-06 17:20:00,
2013-03-06 12:25:00,34.8,32.4,30.12,North,2,8.0,16.0,91,0.01,,,0.13,0.0,WUHU216DAVISWMX,2013-03-06 17:25:00,
2013-03-06 12:30:00,35.0,32.6,30.12,NNE,12,4.0,16.0,91,0.01,,,0.13,0.0,WUHU216DAVISWMX,2013-03-06 17:30:00,
2013-03-06 12:35:00,35.3,33.2,30.12,NNE,23,3.0,16.0,92,0.01,,,0.13,0.0,WUHU216DAVISWMX,2013-03-06 17:35:00,
2013-03-06 12:40:00,35.2,32.8,30.12,NNE,26,8.0,16.0,91,0.01,,,0.13,0.0,WUHU216DAVISWMX,2013-03-06 17:40:00,
2013-03-06 12:46:00,34.8,32.4,30.12,NNE,29,4.0,11.0,91,0.01,,,0.13,0.0,WUHU216DAVISWMX,2013-03-06 17:46:00,
2013-03-06 12:51:00,34.6,32.2,30.12,North,357,3.0,13.0,91,0.01,,,0.13,0.0,WUHU216DAVISWMX,2013-03-06 17:51:00,
2013-03-06 12:55:00,34.4,32.0,30.12,North,358,8.0,13.0,91,0.02,,,0.14,0.0,WUHU216DAVISWMX,2013-03-06 17:55:00,
2013-03-06 13:01:00,34.4,32.0,30.12,North,8,3.0,13.0,91,0.02,,,0.14,0.0,WUHU216DAVISWMX,2013-03-06 18:01:00,
2013-03-06 13:05:00,34.7,32.8,30.12,NE,56,3.0,13.0,93,0.02,,,0.14,0.0,WUHU216DAVISWMX,2013-03-06 18:05:00,
2013-03-06 13:11:00,35.0,33.1,30.12,North,0,0.0,8.0,93,0.02,,,0.14,0.0,WUHU216DAVISWMX,2013-03-06 18:11:00,
2013-03-06 13:15:00,35.2,33.3,30.12,NNE,17,4.0,8.0,93,0.02,,,0.14,0.0,WUHU216DAVISWMX,2013-03-06 18:15:00,
2013-03-06 13:20:00,35.3,33.2,30.11,North,349,1.0,11.0,92,0.01,,,0.14,0.0,WUHU216DAVISWMX,2013-03-06 18:20:00,
2013-03-06 13:25:00,35.6,33.5,30.11,NE,38,8.0,11.0,92,0.01,,,0.14,0.0,WUHU216DAVISWMX,2013-03-06 18:25:00,
2013-03-06 13:30:00,35.6,32.9,30.11,North,349,7.0,17.0,90,0.01,,,0.14,0.0,WUHU216DAVISWMX,2013-03-06 18:30:00,
2013-03-06 13:36:00,35.7,33.0,30.11,NE,36,6.0,17.0,90,0.01,,,0.14,0.0,WUHU216DAVISWMX,2013-03-06 18:36:00,
2013-03-06 13:40:00,35.7,33.0,30.11,ENE,71,3.0,8.0,90,0.01,,,0.14,0.0,WUHU216DAVISWMX,2013-03-06 18:40:00,
2013-03-06 13:45:00,35.6,32.6,30.11,NNW,344,8.0,12.0,89,0.01,,,0.14,0.0,WUHU216DAVISWMX,2013-03-06 18:45:00,
2013-03-06 13:51:00,35.5,32.3,30.12,North,9,6.0,12.0,88,0.01,,,0.14,0.0,WUHU216DAVISWMX,2013-03-06 18:51:00,
2013-03-06 13:56:00,35.5,32.8,30.11,North,7,6.0,9.0,90,0.00,,,0.14,0.0,WUHU216DAVISWMX,2013-03-06 18:56:00,
2013-03-06 14:01:00,35.4,32.4,30.11,NNE,18,4.0,10.0,89,0.00,,,0.14,0.0,WUHU216DAVISWMX,2013-03-06 19:01:00,
2013-03-06 14:06:00,35.3,32.3,30.11,NE,50,3.0,10.0,89,0.00,,,0.14,0.0,WUHU216DAVISWMX,2013-03-06 19:06:00,
2013-03-06 14:11:00,35.1,32.1,30.11,North,2,3.0,13.0,89,0.01,,,0.15,0.0,WUHU216DAVISWMX,2013-03-06 19:11:00,
2013-03-06 14:15:00,35.0,32.3,30.11,NNE,14,2.0,13.0,90,0.01,,,0.15,0.0,WUHU216DAVISWMX,2013-03-06 19:15:00,
2013-03-06 14:20:00,34.9,32.2,30.11,North,6,9.0,13.0,90,0.01,,,0.15,0.0,WUHU216DAVISWMX,2013-03-06 19:20:00,
2013-03-06 14:25:00,35.0,32.3,30.11,NE,45,3.0,13.0,90,0.01,,,0.15,0.0,WUHU216DAVISWMX,2013-03-06 19:25:00,
2013-03-06 14:30:00,34.9,32.5,30.11,North,0,4.0,12.0,91,0.01,,,0.15,0.0,WUHU216DAVISWMX,2013-03-06 19:30:00,
2013-03-06 14:35:00,35.0,32.6,30.10,NE,45,8.0,12.0,91,0.01,,,0.15,0.0,WUHU216DAVISWMX,2013-03-06 19:35:00,
2013-03-06 14:40:00,35.1,32.7,30.11,NNE,12,6.0,10.0,91,0.01,,,0.15,0.0,WUHU216DAVISWMX,2013-03-06 19:40:00,
2013-03-06 14:45:00,35.2,32.8,30.11,NE,54,5.0,14.0,91,0.01,,,0.15,0.0,WUHU216DAVISWMX,2013-03-06 19:45:00,
2013-03-06 14:50:00,35.4,32.4,30.11,ENE,65,1.0,15.0,89,0.02,,,0.16,0.0,WUHU216DAVISWMX,2013-03-06 19:50:00,
2013-03-06 14:55:00,35.5,32.5,30.11,North,1,3.0,15.0,89,0.02,,,0.16,0.0,WUHU216DAVISWMX,2013-03-06 19:55:00,
2013-03-06 15:00:00,35.5,32.3,30.11,North,4,8.0,13.0,88,0.02,,,0.16,0.0,WUHU216DAVISWMX,2013-03-06 20:00:00,
2013-03-06 15:05:00,35.3,31.8,30.12,North,6,2.0,14.0,87,0.02,,,0.16,0.0,WUHU216DAVISWMX,2013-03-06 20:05:00,
2013-03-06 15:10:00,35.2,31.7,30.11,ENE,61,7.0,14.0,87,0.01,,,0.16,0.0,WUHU216DAVISWMX,2013-03-06 20:10:00,
2013-03-06 15:15:00,35.2,31.1,30.11,NE,42,6.0,13.0,85,0.01,,,0.16,0.0,WUHU216DAVISWMX,2013-03-06 20:15:00,
2013-03-06 15:20:00,35.3,31.2,30.11,NE,40,2.0,13.0,85,0.01,,,0.16,0.0,WUHU216DAVISWMX,2013-03-06 20:20:00,
2013-03-06 15:25:00,35.5,30.5,30.11,NE,40,7.0,10.0,82,0.01,,,0.16,0.0,WUHU216DAVISWMX,2013-03-06 20:25:00,
2013-03-06 15:30:00,35.7,30.4,30.11,NE,54,7.0,17.0,81,0.01,,,0.16,0.0,WUHU216DAVISWMX,2013-03-06 20:30:00,
2013-03-06 15:35:00,35.9,29.7,30.11,North,6,2.0,17.0,78,0.01,,,0.16,0.0,WUHU216DAVISWMX,2013-03-06 20:35:00,
2013-03-06 15:41:00,36.1,29.3,30.11,NNW,332,4.0,11.0,76,0.01,,,0.16,0.0,WUHU216DAVISWMX,2013-03-06 20:41:00,
2013-03-06 15:46:00,36.2,29.1,30.11,NNE,23,6.0,15.0,75,0.01,,,0.16,0.0,WUHU216DAVISWMX,2013-03-06 20:46:00,
2013-03-06 15:51:00,36.4,29.0,30.11,NE,42,11.0,15.0,74,0.00,,,0.16,0.0,WUHU216DAVISWMX,2013-03-06 20:51:00,
2013-03-06 15:56:00,36.4,28.6,30.11,NE,55,6.0,14.0,73,0.00,,,0.16,0.0,WUHU216DAVISWMX,2013-03-06 20:56:00,
2013-03-06 16:01:00,36.5,28.4,30.11,North,349,5.0,18.0,72,0.00,,,0.16,0.0,WUHU216DAVISWMX,2013-03-06 21:01:00,
2013-03-06 16:06:00,36.5,28.4,30.11,North,353,2.0,18.0,72,0.00,,,0.16,0.0,WUHU216DAVISWMX,2013-03-06 21:06:00,
2013-03-06 16:11:00,36.3,28.2,30.12,NNE,12,2.0,15.0,72,0.00,,,0.16,0.0,WUHU216DAVISWMX,2013-03-06 21:11:00,
2013-03-06 16:16:00,36.3,27.9,30.12,NE,38,11.0,16.0,71,0.00,,,0.16,0.0,WUHU216DAVISWMX,2013-03-06 21:16:00,
2013-03-06 16:21:00,36.2,28.1,30.11,North,359,6.0,16.0,72,0.00,,,0.16,0.0,WUHU216DAVISWMX,2013-03-06 21:21:00,
2013-03-06 16:26:00,36.1,28.0,30.12,North,355,8.0,13.0,72,0.00,,,0.16,0.0,WUHU216DAVISWMX,2013-03-06 21:26:00,
2013-03-06 16:31:00,35.9,28.1,30.13,North,350,6.0,12.0,73,0.00,,,0.16,0.0,WUHU216DAVISWMX,2013-03-06 21:31:00,
2013-03-06 16:36:00,35.8,28.4,30.13,North,1,4.0,12.0,74,0.00,,,0.16,0.0,WUHU216DAVISWMX,2013-03-06 21:36:00,
2013-03-06 16:41:00,35.6,28.5,30.12,ENE,61,6.0,14.0,75,0.00,,,0.16,0.0,WUHU216DAVISWMX,2013-03-06 21:41:00,
2013-03-06 16:46:00,35.6,28.2,30.13,NNE,21,3.0,14.0,74,0.00,,,0.16,0.0,WUHU216DAVISWMX,2013-03-06 21:46:00,
2013-03-06 16:51:00,35.6,28.5,30.12,North,358,3.0,11.0,75,0.00,,,0.16,0.0,WUHU216DAVISWMX,2013-03-06 21:51:00,
2013-03-06 16:56:00,35.6,28.2,30.12,NE,38,7.0,11.0,74,0.00,,,0.16,0.0,WUHU216DAVISWMX,2013-03-06 21:56:00,
2013-03-06 17:01:00,35.4,28.6,30.12,ENE,71,7.0,16.0,76,0.00,,,0.16,0.0,WUHU216DAVISWMX,2013-03-06 22:01:00,
2013-03-06 17:05:00,35.1,29.0,30.12,NNE,17,2.0,16.0,78,0.00,,,0.16,0.0,WUHU216DAVISWMX,2013-03-06 22:05:00,
2013-03-06 17:10:00,34.8,29.0,30.12,NE,48,2.0,10.0,79,0.00,,,0.16,0.0,WUHU216DAVISWMX,2013-03-06 22:10:00,
2013-03-06 17:15:00,34.7,29.2,30.13,NW,320,7.0,10.0,80,0.00,,,0.16,0.0,WUHU216DAVISWMX,2013-03-06 22:15:00,
2013-03-06 17:20:00,34.7,29.2,30.13,North,0,0.0,10.0,80,0.00,,,0.16,0.0,WUHU216DAVISWMX,2013-03-06 22:20:00,
2013-03-06 17:25:00,34.7,29.2,30.14,North,0,0.0,8.0,80,0.00,,,0.16,0.0,WUHU216DAVISWMX,2013-03-06 22:25:00,
2013-03-06 17:30:00,34.7,29.5,30.14,NE,34,4.0,12.0,81,0.00,,,0.16,0.0,WUHU216DAVISWMX,2013-03-06 22:30:00,
2013-03-06 17:35:00,34.6,29.4,30.14,North,3,5.0,12.0,81,0.00,,,0.16,0.0,WUHU216DAVISWMX,2013-03-06 22:35:00,
2013-03-06 17:40:00,34.5,29.6,30.14,North,6,3.0,7.0,82,0.00,,,0.16,0.0,WUHU216DAVISWMX,2013-03-06 22:40:00,
2013-03-06 17:45:00,34.5,29.6,30.14,North,357,4.0,10.0,82,0.00,,,0.16,0.0,WUHU216DAVISWMX,2013-03-06 22:45:00,
2013-03-06 17:50:00,34.6,29.4,30.14,North,5,5.0,10.0,81,0.00,,,0.16,0.0,WUHU216DAVISWMX,2013-03-06 22:50:00,
2013-03-06 17:55:00,34.7,29.2,30.14,NNW,332,1.0,12.0,80,0.00,,,0.16,0.0,WUHU216DAVISWMX,2013-03-06 22:55:00,
2013-03-06 18:00:00,34.8,29.3,30.14,North,3,6.0,12.0,80,0.00,,,0.16,0.0,WUHU216DAVISWMX,2013-03-06 23:00:00,
2013-03-06 18:05:00,34.8,29.3,30.14,North,356,2.0,12.0,80,0.00,,,0.16,0.0,WUHU216DAVISWMX,2013-03-06 23:05:00,
2013-03-06 18:10:00,34.6,29.4,30.15,NNE,14,6.0,13.0,81,0.00,,,0.16,0.0,WUHU216DAVISWMX,2013-03-06 23:10:00,
2013-03-06 18:15:00,34.4,29.2,30.14,North,11,3.0,13.0,81,0.00,,,0.16,0.0,WUHU216DAVISWMX,2013-03-06 23:15:00,
2013-03-06 18:20:00,34.4,29.2,30.14,North,355,2.0,10.0,81,0.00,,,0.16,0.0,WUHU216DAVISWMX,2013-03-06 23:20:00,
2013-03-06 18:25:00,34.2,29.3,30.14,NNW,343,4.0,7.0,82,0.00,,,0.16,0.0,WUHU216DAVISWMX,2013-03-06 23:25:00,
2013-03-06 18:30:00,34.1,29.5,30.14,North,3,5.0,8.0,83,0.00,,,0.16,0.0,WUHU216DAVISWMX,2013-03-06 23:30:00,
2013-03-06 18:35:00,34.0,29.7,30.13,NNW,347,4.0,8.0,84,0.00,,,0.16,0.0,WUHU216DAVISWMX,2013-03-06 23:35:00,
2013-03-06 18:40:00,33.8,29.7,30.13,NNW,333,2.0,12.0,85,0.00,,,0.16,0.0,WUHU216DAVISWMX,2013-03-06 23:40:00,
2013-03-06 18:45:00,33.8,30.0,30.13,NNW,340,6.0,12.0,86,0.00,,,0.16,0.0,WUHU216DAVISWMX,2013-03-06 23:45:00,
2013-03-06 18:50:00,33.7,29.9,30.12,NE,46,2.0,11.0,86,0.00,,,0.16,0.0,WUHU216DAVISWMX,2013-03-06 23:50:00,
2013-03-06 18:55:00,33.6,30.1,30.13,North,3,5.0,10.0,87,0.00,,,0.16,0.0,WUHU216DAVISWMX,2013-03-06 23:55:00,
2013-03-06 19:00:00,33.6,30.1,30.13,NNE,26,9.0,13.0,87,0.00,,,0.16,0.0,WUHU216DAVISWMX,2013-03-07 00:00:00,
2013-03-06 19:05:00,33.5,30.3,30.13,NNE,27,1.0,13.0,88,0.00,,,0.16,0.0,WUHU216DAVISWMX,2013-03-07 00:05:00,
2013-03-06 19:10:00,33.4,30.2,30.13,NE,39,2.0,10.0,88,0.00,,,0.16,0.0,WUHU216DAVISWMX,2013-03-07 00:10:00,
2013-03-06 19:15:00,33.4,30.5,30.13,NNW,334,10.0,14.0,89,0.00,,,0.16,0.0,WUHU216DAVISWMX,2013-03-07 00:15:00,
2013-03-06 19:20:00,33.4,30.5,30.13,North,0,2.0,14.0,89,0.00,,,0.16,0.0,WUHU216DAVISWMX,2013-03-07 00:20:00,
2013-03-06 19:25:00,33.4,30.5,30.13,North,352,1.0,18.0,89,0.00,,,0.16,0.0,WUHU216DAVISWMX,2013-03-07 00:25:00,
2013-03-06 19:30:00,33.4,30.5,30.14,North,358,6.0,18.0,89,0.00,,,0.16,0.0,WUHU216DAVISWMX,2013-03-07 00:30:00,
2013-03-06 19:35:00,33.4,30.5,30.13,NNE,22,2.0,10.0,89,0.00,,,0.16,0.0,WUHU216DAVISWMX,2013-03-07 00:35:00,
2013-03-06 19:40:00,33.3,30.4,30.14,NNE,13,4.0,10.0,89,0.00,,,0.16,0.0,WUHU216DAVISWMX,2013-03-07 00:40:00,
2013-03-06 19:45:00,33.2,30.5,30.14,NNW,339,0.0,9.0,90,0.00,,,0.16,0.0,WUHU216DAVISWMX,2013-03-07 00:45:00,
2013-03-06 19:50:00,33.0,30.3,30.15,North,8,2.0,9.0,90,0.00,,,0.16,0.0,WUHU216DAVISWMX,2013-03-07 00:50:00,
2013-03-06 19:55:00,32.7,30.0,30.15,NNE,29,1.0,8.0,90,0.00,,,0.16,0.0,WUHU216DAVISWMX,2013-03-07 00:55:00,
2013-03-06 20:00:00,32.4,30.0,30.15,NNE,27,3.0,8.0,91,0.00,,,0.16,0.0,WUHU216DAVISWMX,2013-03-07 01:00:00,
2013-03-06 20:06:00,32.2,29.8,30.15,North,0,0.0,7.0,91,0.00,,,0.16,0.0,WUHU216DAVISWMX,2013-03-07 01:06:00,
2013-03-06 20:11:00,32.1,29.7,30.15,North,355,1.0,7.0,91,0.00,,,0.16,0.0,WUHU216DAVISWMX,2013-03-07 01:11:00,
2013-03-06 20:16:00,32.0,29.9,30.14,North,0,2.0,7.0,92,0.00,,,0.16,0.0,WUHU216DAVISWMX,2013-03-07 01:16:00,
2013-03-06 20:21:00,32.0,30.2,30.14,NNW,344,1.0,9.0,93,0.00,,,0.16,0.0,WUHU216DAVISWMX,2013-03-07 01:21:00,
2013-03-06 20:26:00,31.9,30.1,30.14,NNE,21,4.0,10.0,93,0.00,,,0.16,0.0,WUHU216DAVISWMX,2013-03-07 01:26:00,
2013-03-06 20:31:00,31.8,30.0,30.14,NNE,12,1.0,10.0,93,0.00,,,0.16,0.0,WUHU216DAVISWMX,2013-03-07 01:31:00,
2013-03-06 20:36:00,31.7,30.1,30.14,North,357,2.0,8.0,94,0.00,,,0.16,0.0,WUHU216DAVISWMX,2013-03-07 01:36:00,
2013-03-06 20:41:00,31.6,30.0,30.14,ENE,65,2.0,8.0,94,0.00,,,0.16,0.0,WUHU216DAVISWMX,2013-03-07 01:41:00,
2013-03-06 20:46:00,31.7,30.1,30.14,NNE,14,3.0,8.0,94,0.00,,,0.16,0.0,WUHU216DAVISWMX,2013-03-07 01:46:00,
2013-03-06 20:51:00,31.6,30.0,30.14,North,0,0.0,8.0,94,0.00,,,0.16,0.0,WUHU216DAVISWMX,2013-03-07 01:51:00,
2013-03-06 20:56:00,31.5,29.9,30.13,North,359,0.0,8.0,94,0.00,,,0.16,0.0,WUHU216DAVISWMX,2013-03-07 01:56:00,
2013-03-06 21:01:00,31.5,30.2,30.14,North,0,0.0,6.0,95,0.00,,,0.16,0.0,WUHU216DAVISWMX,2013-03-07 02:01:00,
2013-03-06 21:06:00,31.4,29.8,30.13,North,11,4.0,7.0,94,0.00,,,0.16,0.0,WUHU216DAVISWMX,2013-03-07 02:06:00,
2013-03-06 21:11:00,31.5,30.2,30.13,North,0,3.0,7.0,95,0.00,,,0.16,0.0,WUHU216DAVISWMX,2013-03-07 02:11:00,
2013-03-06 21:16:00,31.4,30.1,30.13,NNE,12,2.0,6.0,95,0.00,,,0.16,0.0,WUHU216DAVISWMX,2013-03-07 02:16:00,
2013-03-06 21:21:00,31.4,30.1,30.13,North,0,2.0,6.0,95,0.00,,,0.16,0.0,WUHU216DAVISWMX,2013-03-07 02:21:00,
2013-03-06 21:26:00,31.3,30.0,30.13,North,2,3.0,8.0,95,0.00,,,0.16,0.0,WUHU216DAVISWMX,2013-03-07 02:26:00,
2013-03-06 21:30:00,31.3,30.0,30.13,NNW,343,1.0,8.0,95,0.00,,,0.16,0.0,WUHU216DAVISWMX,2013-03-07 02:30:00,
2013-03-06 21:35:00,31.3,30.0,30.12,NNE,12,4.0,6.0,95,0.00,,,0.16,0.0,WUHU216DAVISWMX,2013-03-07 02:35:00,
2013-03-06 21:40:00,31.3,30.0,30.12,North,0,3.0,6.0,95,0.00,,,0.16,0.0,WUHU216DAVISWMX,2013-03-07 02:40:00,
2013-03-06 21:45:00,31.3,30.0,30.12,NNW,343,1.0,11.0,95,0.00,,,0.16,0.0,WUHU216DAVISWMX,2013-03-07 02:45:00,
2013-03-06 21:50:00,31.2,29.9,30.12,North,358,9.0,11.0,95,0.00,,,0.16,0.0,WUHU216DAVISWMX,2013-03-07 02:50:00,
2013-03-06 21:55:00,31.2,29.9,30.12,NNE,23,7.0,11.0,95,0.00,,,0.16,0.0,WUHU216DAVISWMX,2013-03-07 02:55:00,
2013-03-06 22:00:00,31.2,29.9,30.12,NNW,344,1.0,11.0,95,0.00,,,0.16,0.0,WUHU216DAVISWMX,2013-03-07 03:00:00,
2013-03-06 22:05:00,31.1,29.8,30.12,North,359,3.0,8.0,95,0.00,,,0.16,0.0,WUHU216DAVISWMX,2013-03-07 03:05:00,
2013-03-06 22:10:00,31.0,29.7,30.11,North,0,2.0,8.0,95,0.00,,,0.16,0.0,WUHU216DAVISWMX,2013-03-07 03:10:00,
2013-03-06 22:15:00,31.0,29.7,30.12,North,10,5.0,6.0,95,0.00,,,0.16,0.0,WUHU216DAVISWMX,2013-03-07 03:15:00,
2013-03-06 22:20:00,31.0,29.7,30.12,North,0,1.0,8.0,95,0.00,,,0.16,0.0,WUHU216DAVISWMX,2013-03-07 03:20:00,
2013-03-06 22:25:00,31.0,29.7,30.12,North,355,3.0,8.0,95,0.00,,,0.16,0.0,WUHU216DAVISWMX,2013-03-07 03:25:00,
2013-03-06 22:30:00,31.0,29.7,30.12,North,352,3.0,8.0,95,0.00,,,0.16,0.0,WUHU216DAVISWMX,2013-03-07 03:30:00,
2013-03-06 22:35:00,30.9,29.6,30.12,North,2,1.0,9.0,95,0.00,,,0.16,0.0,WUHU216DAVISWMX,2013-03-07 03:35:00,
2013-03-06 22:40:00,31.0,29.7,30.12,North,351,2.0,9.0,95,0.01,,,0.17,0.0,WUHU216DAVISWMX,2013-03-07 03:40:00,
2013-03-06 22:45:00,31.0,29.7,30.12,NE,36,2.0,7.0,95,0.02,,,0.18,0.0,WUHU216DAVISWMX,2013-03-07 03:45:00,
2013-03-06 22:50:00,30.9,29.6,30.12,North,10,2.0,7.0,95,0.03,,,0.19,0.0,WUHU216DAVISWMX,2013-03-07 03:50:00,
2013-03-06 22:55:00,30.9,29.6,30.12,NNW,334,2.0,10.0,95,0.03,,,0.19,0.0,WUHU216DAVISWMX,2013-03-07 03:55:00,
2013-03-06 23:00:00,30.9,29.6,30.12,North,0,2.0,10.0,95,0.04,,,0.20,0.0,WUHU216DAVISWMX,2013-03-07 04:00:00,
2013-03-06 23:05:00,30.9,29.6,30.12,North,11,4.0,8.0,95,0.05,,,0.21,0.0,WUHU216DAVISWMX,2013-03-07 04:05:00,
2013-03-06 23:10:00,30.9,29.6,30.12,NNW,348,4.0,7.0,95,0.05,,,0.21,0.0,WUHU216DAVISWMX,2013-03-07 04:10:00,
2013-03-06 23:15:00,30.8,29.5,30.12,North,8,5.0,7.0,95,0.06,,,0.22,0.0,WUHU216DAVISWMX,2013-03-07 04:15:00,
2013-03-06 23:20:00,30.8,29.5,30.11,North,356,3.0,9.0,95,0.06,,,0.22,0.0,WUHU216DAVISWMX,2013-03-07 04:20:00,
2013-03-06 23:26:00,30.8,29.5,30.11,North,358,7.0,9.0,95,0.07,,,0.23,0.0,WUHU216DAVISWMX,2013-03-07 04:26:00,
2013-03-06 23:31:00,30.7,29.4,30.12,NNW,344,1.0,7.0,95,0.08,,,0.24,0.0,WUHU216DAVISWMX,2013-03-07 04:31:00,
2013-03-06 23:36:00,30.7,29.1,30.12,North,11,4.0,7.0,94,0.07,,,0.24,0.0,WUHU216DAVISWMX,2013-03-07 04:36:00,
2013-03-06 23:41:00,30.7,29.1,30.11,North,0,4.0,10.0,94,0.07,,,0.24,0.0,WUHU216DAVISWMX,2013-03-07 04:41:00,
2013-03-06 23:46:00,30.7,29.1,30.12,NNW,347,3.0,10.0,94,0.07,,,0.25,0.0,WUHU216DAVISWMX,2013-03-07 04:46:00,
2013-03-06 23:51:00,30.7,29.1,30.12,North,8,9.0,11.0,94,0.06,,,0.25,0.0,WUHU216DAVISWMX,2013-03-07 04:51:00,
2013-03-06 23:56:00,30.7,29.1,30.12,NNE,18,7.0,13.0,94,0.07,,,0.26,0.0,WUHU216DAVISWMX,2013-03-07 04:56:00,